Temp
72 75 82 83 83 83 83 83 83 83 83 83 83 83 83 83 83 83 83 83 83 82 84 84 84 84 84 83 83 83 83 83 83 83 83 83 83 82 82 83 82 83 82
76 77 81 83 83 83 83 83 83 83 83 83 83 83 83 83 83 83 82 83 83 83 84 84 84 84 84 84 83 83 83 83 83 83 83 83 83 82 83 83 82 83 83
77 78 80 82 83 83 83 83 83 83 83 83 83 83 83 83 83 83 83 83 83 83 84 84 84 84 84 84 84 83 83 83 84 84 82 80 81 83 83 82 82 83 82
77 76 78 81 83 82 82 83 83 83 83 83 83 83 83 83 83 84 84 83 83 84 84 84 84 84 84 84 83 83 84 84 83 82 80 81 84 83 83 82 82 81 81
75 76 78 82 82 83 82 83 83 83 83 83 83 83 83 83 84 84 84 84 83 83 83 84 84 84 84 84 84 83 83 83 83 81 79 78 80 83 82 82 82 82 81
73 75 81 82 83 83 83 83 83 83 83 83 83 82 83 84 84 84 84 83 83 83 84 84 83 83 84 84 84 83 84 84 84 80 78 80 79 82 82 82 82 82 81
72 75 79 82 83 83 83 83 82 83 83 82 83 83 84 84 84 84 83 84 84 84 84 84 84 84 84 84 84 84 84 83 78 77 78 78 79 82 82 82 82 82 81
73 76 79 82 83 83 83 82 81 83 83 83 83 82 83 83 83 84 84 84 84 84 84 84 84 84 84 84 84 84 83 83 80 78 78 79 79 82 82 82 81 81 81
74 75 76 78 81 83 82 81 82 83 82 83 83 83 84 84 83 84 84 84 84 84 84 84 84 84 84 84 84 83 83 81 76 76 80 79 79 82 82 82 81 81 81
73 72 72 74 75 75 77 82 83 83 83 83 83 83 83 84 84 84 83 84 84 84 85 84 84 84 84 84 84 84 83 81 78 77 79 79 79 82 82 82 81 81 82
73 71 72 72 71 73 74 79 82 83 83 83 82 82 80 78 80 80 82 84 84 84 84 84 84 84 83 82 82 83 82 79 77 78 79 78 79 82 83 82 82 82 81
68 70 71 71 71 72 74 72 73 74 74 73 74 73 74 76 77 79 81 84 84 84 84 84 84 84 81 78 75 77 75 76 77 78 79 79 80 82 83 83 82 82 81
69 70 70 70 70 71 72 71 70 71 72 73 73 73 74 76 76 76 76 76 76 79 78 79 78 80 79 75 74 73 74 75 78 77 77 78 80 81 83 83 83 82 82
68 69 70 70 69 70 72 71 71 72 73 73 72 73 73 73 75 75 74 75 75 76 74 75 75 77 78 76 76 76 74 74 75 74 75 78 79 81 82 83 83 83 82
68 69 69 69 69 70 71 71 71 71 72 74 74 74 75 73 74 74 74 74 75 75 76 75 75 77 76 77 76 77 76 76 76 76 74 79 79 80 81 83 83 83 83
69 68 69 69 70 70 71 70 70 71 72 74 74 73 74 74 74 74 74 74 74 75 75 76 76 76 77 77 76 76 78 76 77 77 76 76 79 79 81 82 83 83 83
69 69 68 69 70 70 70 70 70 72 73 74 73 73 73 73 73 73 74 73 74 72 75 76 76 76 78 78 76 76 78 79 79 78 77 76 77 79 81 82 82 82 81
69 68 69 74 70 69 68 68 70 70 72 73 73 73 74 73 73 73 73 73 74 73 75 76 76 77 76 76 75 74 75 76 77 77 78 76 76 79 80 81 81 81 83
70 69 68 70 69 68 68 67 68 70 70 72 73 73 73 73 74 72 72 72 73 73 74 75 75 75 75 75 76 74 74 75 76 78 77 77 77 78 78 80 80 81 83
71 70 69 69 68 68 67 67 68 69 70 71 72 72 73 72 74 72 72 72 72 73 75 73 75 74 74 75 80 76 74 75 75 75 75 78 77 78 79 79 79 81 80
71 69 69 68 67 67 66 66 67 68 69 71 71 72 72 71 73 72 72 71 72 73 74 75 75 75 74 74 73 74 74 74 75 75 75 75 78 79 78 78 78 79 82
71 70 69 69 67 68 67 68 69 69 70 72 72 71 71 71 72 73 72 71 72 72 75 75 75 73 72 72 74 71 70 72 72 73 74 76 75 75 78 79 79 79 79
71 70 70 70 69 69 68 69 70 70 70 70 70 71 70 72 72 72 72 71 71 74 75 75 75 74 71 71 72 72 68 69 65 70 73 73 75 74 75 76 78 79 78
74 74 72 70 70 70 69 69 70 69 68 70 72 72 71 72 73 73 71 71 73 74 74 75 76 73 72 72 71 73 70 71 70 71 71 72 75 75 76 75 76 77 78
76 74 74 70 70 71 70 70 71 69 70 72 72 71 71 72 73 73 73 72 73 75 76 76 75 72 72 72 70 69 70 69 69 70 71 73 72 74 73 75 76 75 77
75 74 73 70 70 71 71 70 70 70 70 70 70 70 71 71 72 72 74 73 73 75 75 76 76 75 74 73 71 70 71 72 70 69 68 70 69 72 75 74 73 74 75
MSLP
1014.67 1014.49 1014.54 1014.70 1014.86 1015.03 1015.21 1015.34 1015.52 1015.62 1015.74 1015.83 1015.90 1016.13 1016.27 1016.43 1016.54 1016.69 1016.90 1016.92 1017.06 1017.28 1017.25 1017.34 1017.45 1017.54 1017.63 1017.75 1017.83 1017.83 1017.91 1017.88 1017.87 1017.96 1018.00 1018.04 1018.15 1018.24 1018.42 1018.64 1018.92 1019.04 1019.20
1014.06 1014.51 1014.68 1014.82 1015.05 1015.20 1015.41 1015.57 1015.72 1015.83 1015.98 1016.19 1016.33 1016.45 1016.59 1016.71 1016.72 1016.82 1016.81 1017.04 1017.35 1017.52 1017.44 1017.62 1017.77 1017.88 1018.00 1018.03 1018.14 1018.15 1018.29 1018.29 1018.13 1018.19 1018.23 1018.33 1018.40 1018.53 1018.68 1018.91 1019.11 1019.31 1019.55
1014.02 1014.43 1014.78 1014.99 1015.20 1015.45 1015.68 1015.84 1015.94 1016.00 1016.13 1016.30 1016.48 1016.72 1016.84 1016.89 1016.91 1017.03 1017.18 1017.43 1017.69 1017.81 1017.75 1017.89 1018.07 1018.19 1018.26 1018.20 1018.35 1018.51 1018.66 1018.63 1018.55 1018.54 1018.65 1018.75 1018.84 1018.90 1019.06 1019.26 1019.39 1019.61 1019.84
1014.13 1014.61 1014.92 1014.82 1015.31 1015.62 1015.88 1016.00 1016.19 1016.30 1016.35 1016.55 1016.70 1016.96 1017.03 1017.08 1017.12 1017.32 1017.58 1017.76 1018.09 1018.06 1018.18 1018.24 1018.35 1018.46 1018.54 1018.58 1018.65 1018.72 1018.75 1018.80 1018.90 1019.01 1019.19 1019.26 1019.11 1019.16 1019.27 1019.49 1019.64 1019.89 1020.12
1014.51 1014.82 1015.07 1015.27 1015.52 1015.75 1016.03 1016.15 1016.27 1016.32 1016.56 1016.74 1016.93 1017.12 1017.24 1017.26 1017.38 1017.68 1017.85 1018.09 1018.26 1018.39 1018.57 1018.55 1018.60 1018.78 1018.83 1018.91 1018.93 1018.87 1018.86 1018.87 1019.01 1019.33 1019.51 1019.60 1019.63 1019.52 1019.57 1019.71 1019.78 1019.97 1020.21
1014.94 1015.11 1015.20 1015.43 1015.73 1015.96 1016.04 1016.17 1016.36 1016.44 1016.63 1016.91 1017.03 1017.38 1017.43 1017.44 1017.71 1017.96 1018.22 1018.41 1018.66 1018.62 1018.72 1018.85 1019.01 1019.09 1019.02 1019.04 1019.11 1019.08 1018.96 1018.95 1018.95 1019.37 1019.65 1019.76 1019.91 1019.81 1019.86 1019.92 1019.91 1020.18 1020.35
1015.37 1015.39 1015.49 1015.62 1015.90 1016.13 1016.28 1016.29 1016.54 1016.62 1016.78 1017.08 1017.16 1017.35 1017.49 1017.76 1017.84 1018.18 1018.41 1018.59 1018.71 1018.77 1018.99 1019.10 1019.18 1019.22 1019.16 1019.27 1019.21 1019.05 1018.99 1019.08 1019.36 1019.65 1019.71 1019.91 1019.96 1019.96 1020.01 1020.10 1020.13 1020.34 1020.54
1015.55 1015.56 1015.62 1015.81 1016.11 1016.26 1016.45 1016.45 1016.64 1016.85 1017.05 1017.17 1017.33 1017.71 1017.73 1017.99 1018.13 1018.37 1018.48 1018.70 1018.90 1019.06 1019.25 1019.30 1019.31 1019.40 1019.37 1019.34 1019.17 1018.92 1019.22 1019.44 1019.67 1019.84 1019.94 1020.09 1020.08 1020.06 1020.17 1020.19 1020.34 1020.50 1020.63
1015.58 1015.72 1015.83 1015.98 1016.23 1016.41 1016.55 1016.75 1016.65 1017.09 1017.16 1017.29 1017.56 1017.84 1017.90 1018.01 1018.34 1018.48 1018.63 1018.93 1019.08 1019.27 1019.36 1019.40 1019.42 1019.45 1019.52 1019.47 1019.41 1019.34 1019.37 1019.58 1019.86 1019.95 1020.10 1020.26 1020.27 1020.16 1020.22 1020.27 1020.38 1020.45 1020.59
1015.81 1016.04 1016.25 1016.35 1016.58 1016.78 1016.82 1016.91 1017.05 1017.24 1017.28 1017.52 1017.71 1017.95 1018.10 1018.32 1018.44 1018.64 1018.94 1019.18 1019.34 1019.44 1019.49 1019.56 1019.58 1019.62 1019.59 1019.40 1019.48 1019.51 1019.46 1019.68 1019.90 1020.04 1020.16 1020.34 1020.34 1020.22 1020.21 1020.30 1020.34 1020.36 1020.51
1016.24 1016.35 1016.41 1016.76 1017.02 1017.09 1017.09 1017.08 1017.19 1017.33 1017.45 1017.70 1017.93 1018.18 1018.40 1018.64 1018.92 1019.09 1019.26 1019.36 1019.52 1019.61 1019.71 1019.72 1019.60 1019.60 1019.55 1019.73 1019.85 1019.73 1019.78 1019.79 1019.93 1020.09 1020.13 1020.26 1020.35 1020.27 1020.25 1020.23 1020.31 1020.27 1020.40
1016.53 1016.67 1016.78 1016.91 1017.27 1017.32 1017.36 1017.51 1017.70 1017.76 1018.08 1018.28 1018.42 1018.68 1018.80 1019.07 1019.32 1019.36 1019.40 1019.41 1019.59 1019.71 1019.68 1019.72 1019.61 1019.52 1019.77 1020.00 1020.46 1020.40 1020.38 1020.35 1020.16 1019.94 1019.99 1020.18 1020.29 1020.26 1020.11 1020.05 1020.21 1020.19 1020.33
1016.54 1016.73 1016.98 1017.17 1017.36 1017.42 1017.57 1017.64 1018.02 1018.23 1018.46 1018.60 1018.72 1019.03 1019.05 1019.30 1019.55 1019.60 1019.73 1019.88 1019.92 1019.84 1019.86 1019.77 1019.76 1019.70 1019.88 1020.10 1020.47 1020.39 1020.09 1020.04 1019.82 1019.97 1019.91 1019.99 1020.05 1020.16 1020.14 1020.14 1020.07 1020.19 1020.29
1016.73 1016.84 1017.02 1017.25 1017.40 1017.55 1017.67 1017.76 1018.11 1018.38 1018.47 1018.82 1018.95 1018.95 1019.26 1019.28 1019.60 1019.80 1019.93 1020.03 1020.00 1020.01 1019.88 1019.73 1019.84 1019.73 1019.79 1020.04 1020.36 1020.19 1019.77 1019.84 1019.90 1019.95 1019.91 1019.81 1019.89 1019.96 1020.03 1020.17 1020.17 1020.18 1020.22
1016.83 1017.01 1017.26 1017.30 1017.55 1017.68 1017.73 1017.96 1018.18 1018.51 1018.78 1018.85 1018.98 1018.93 1019.14 1019.22 1019.58 1019.95 1019.99 1020.04 1019.95 1019.87 1019.78 1019.73 1019.75 1019.69 1019.79 1020.14 1020.34 1020.09 1019.77 1019.61 1019.60 1019.61 1019.74 1019.76 1019.81 1019.86 1019.82 1019.86 1020.04 1020.18 1020.20
1016.74 1016.98 1017.25 1017.46 1017.52 1017.79 1017.88 1018.05 1018.32 1018.51 1018.76 1018.92 1018.77 1018.96 1019.08 1019.23 1019.59 1019.85 1019.91 1019.97 1019.91 1019.94 1019.78 1019.56 1019.56 1019.59 1019.58 1019.99 1020.14 1020.11 1019.65 1019.70 1019.46 1019.56 1019.53 1019.55 1019.72 1019.81 1019.86 1019.95 1020.08 1020.10 1020.10
1016.41 1016.83 1017.16 1017.41 1017.50 1017.90 1018.03 1018.25 1018.50 1018.66 1018.62 1018.53 1018.84 1018.87 1019.03 1019.39 1019.53 1019.73 1019.90 1019.97 1019.90 1019.93 1019.68 1019.45 1019.42 1019.45 1019.35 1019.58 1019.85 1019.84 1019.47 1019.33 1019.20 1019.45 1019.63 1019.63 1019.65 1019.73 1019.86 1019.83 1019.90 1020.06 1020.16
1016.17 1016.72 1017.03 1017.34 1017.59 1017.83 1018.11 1018.42 1018.63 1018.87 1018.85 1018.78 1018.88 1018.99 1019.28 1019.48 1019.59 1019.67 1019.89 1019.96 1020.01 1019.95 1019.61 1019.46 1019.48 1019.50 1019.50 1019.59 1019.83 1019.83 1019.67 1019.37 1019.42 1019.52 1019.50 1019.70 1019.72 1019.83 1019.83 1019.83 1019.90 1020.06 1019.98
1015.75 1016.35 1016.86 1017.14 1017.50 1017.82 1018.05 1018.37 1018.60 1018.73 1018.95 1018.97 1019.06 1019.21 1019.33 1019.45 1019.60 1019.70 1019.89 1020.00 1020.09 1019.94 1019.72 1019.66 1019.69 1019.73 1019.86 1019.83 1020.13 1020.02 1020.08 1019.90 1019.91 1019.83 1019.63 1019.59 1019.70 1019.78 1019.91 1019.86 1019.87 1020.01 1020.03
1015.54 1016.07 1016.57 1017.04 1017.42 1017.73 1018.06 1018.43 1018.61 1018.80 1018.74 1018.69 1018.85 1018.91 1019.05 1019.40 1019.44 1019.63 1019.80 1020.04 1020.13 1020.01 1019.86 1019.81 1019.88 1019.87 1020.13 1020.02 1020.17 1020.44 1020.35 1020.30 1020.15 1019.99 1019.84 1019.56 1019.70 1019.78 1019.84 1019.80 1020.04 1019.94 1020.00
1015.28 1015.83 1016.21 1016.67 1017.16 1017.70 1018.10 1018.49 1018.80 1018.75 1018.81 1018.74 1018.57 1018.70 1018.89 1019.22 1019.27 1019.48 1019.68 1019.87 1020.18 1020.06 1019.89 1020.04 1020.16 1020.15 1020.43 1020.45 1020.41 1020.77 1020.60 1020.60 1020.53 1020.17 1019.95 1019.89 1019.77 1020.04 1020.07 1020.12 1020.04 1020.09 1020.05
1014.74 1015.36 1015.92 1016.14 1016.57 1017.16 1017.57 1017.75 1017.82 1018.23 1018.35 1018.33 1018.29 1018.53 1018.69 1019.00 1019.14 1019.29 1019.57 1019.79 1019.96 1020.09 1019.85 1020.06 1020.24 1020.36 1020.56 1020.64 1020.60 1020.93 1020.97 1020.90 1020.72 1020.55 1020.11 1019.93 1020.04 1020.16 1020.09 1020.21 1020.11 1020.08 1020.16
1014.23 1014.63 1015.17 1015.63 1016.13 1016.60 1017.01 1017.45 1017.65 1017.93 1018.16 1018.44 1018.44 1018.30 1018.44 1018.76 1019.02 1019.14 1019.36 1019.71 1019.78 1019.70 1019.64 1019.84 1020.00 1020.14 1020.48 1020.68 1020.57 1020.69 1021.10 1021.13 1021.27 1020.76 1020.37 1020.17 1020.03 1019.89 1019.94 1019.97 1019.95 1019.97 1020.04
1013.39 1014.12 1014.59 1015.38 1015.85 1016.22 1016.64 1017.05 1017.26 1017.50 1017.86 1017.80 1017.88 1017.85 1018.14 1018.42 1018.62 1018.86 1019.25 1019.35 1019.41 1019.48 1019.46 1019.61 1019.72 1019.98 1020.19 1020.55 1020.66 1020.58 1020.63 1020.60 1020.99 1021.07 1020.59 1020.22 1020.14 1019.83 1019.74 1019.68 1019.66 1019.70 1019.65
1013.16 1013.42 1013.88 1014.86 1015.53 1015.78 1016.23 1016.52 1016.97 1017.31 1017.43 1017.48 1017.67 1017.93 1018.03 1018.18 1018.39 1018.70 1018.89 1019.01 1019.22 1019.19 1019.27 1019.43 1019.55 1019.86 1020.19 1020.31 1020.58 1020.71 1020.77 1020.71 1020.83 1021.03 1020.91 1020.49 1020.26 1019.76 1019.45 1019.46 1019.45 1019.54 1019.45
1012.67 1013.31 1013.82 1014.35 1014.98 1015.49 1015.64 1016.11 1016.54 1016.94 1017.11 1017.41 1017.71 1017.94 1018.08 1018.33 1018.57 1018.61 1018.77 1018.84 1018.97 1018.88 1019.01 1019.14 1019.47 1019.81 1020.08 1020.25 1020.39 1020.46 1020.38 1020.45 1020.55 1020.71 1020.98 1020.75 1020.45 1019.67 1019.42 1019.37 1019.22 1019.22 1019.25
Wind_Speed
3 5 10 12 10 11 11 11 11 11 11 11 13 13 14 14 14 13 13 13 12 11 12 11 11 10 9 9 9 10 9 8 8 7 8 9 10 11 11 12 11 9 10
8 5 12 11 10 9 9 10 10 10 10 10 11 13 13 13 13 12 13 14 13 12 13 13 12 11 10 11 10 10 8 7 7 6 5 7 10 10 10 10 9 8 10
10 6 7 11 10 9 8 8 9 9 9 9 10 11 12 12 13 12 13 12 12 13 14 13 12 11 11 11 10 9 7 7 6 8 7 4 4 9 9 8 7 8 7
9 6 6 11 10 9 9 9 8 9 9 9 9 11 11 11 12 12 12 12 12 13 13 12 12 12 11 10 9 7 6 6 6 8 4 4 4 7 8 9 8 7 6
6 6 6 12 11 9 8 9 8 9 10 10 10 11 11 12 12 12 11 12 11 13 13 11 12 10 9 8 7 5 4 6 6 5 3 4 3 6 7 7 8 6 6
6 5 7 11 11 9 9 9 9 8 10 10 10 10 11 12 12 12 11 13 13 13 11 10 9 8 7 7 3 3 7 8 6 4 3 3 3 6 5 6 6 4 4
5 4 5 10 10 9 9 10 10 10 11 11 10 11 12 13 13 12 13 12 13 12 10 9 8 7 6 6 3 4 3 5 5 4 4 2 2 4 5 4 3 3 1
6 5 4 10 10 8 9 8 10 10 12 12 11 12 12 12 12 11 12 12 10 10 8 8 7 7 6 5 7 3 9 9 6 4 3 2 2 4 4 4 2 1 1
5 3 4 4 8 9 6 10 7 9 10 10 11 11 12 11 12 11 10 10 9 7 8 8 8 7 6 5 6 9 8 8 5 3 2 1 4 4 3 2 1 1 3
5 5 3 5 4 3 3 10 10 9 10 10 11 11 12 11 10 10 9 7 7 6 8 8 6 6 6 5 6 6 8 8 4 3 2 2 5 3 3 2 2 3 5
4 4 4 4 3 3 2 5 8 9 11 10 9 11 6 3 5 6 6 7 6 4 5 5 5 5 5 5 5 2 4 2 5 4 3 5 5 5 4 3 4 4 6
4 3 4 4 4 4 3 4 5 5 4 4 5 4 4 4 3 4 3 5 3 2 3 4 3 3 3 2 3 6 2 4 2 3 2 5 6 7 5 5 5 5 6
4 4 5 5 4 4 4 3 3 2 3 3 5 4 4 3 3 2 2 3 2 4 2 4 4 2 3 3 3 3 2 1 2 2 3 2 3 5 7 1 3 4 6
5 5 4 5 5 5 3 3 4 3 3 3 3 5 2 2 3 2 1 1 1 1 2 2 2 3 3 3 2 1 3 3 1 2 3 3 1 4 5 6 6 7 6
5 5 5 5 5 4 4 3 3 3 3 3 3 3 3 2 2 2 1 1 1 0 1 3 3 3 2 1 2 2 2 4 4 3 2 3 3 3 5 7 8 8 7
6 6 6 5 5 4 3 4 3 3 4 3 2 2 2 2 2 2 2 2 1 2 2 2 2 3 2 1 2 4 4 3 4 3 3 3 4 4 5 6 8 8 7
5 6 7 6 5 4 5 4 3 3 3 2 3 2 2 1 2 3 2 2 1 1 3 2 1 0 2 0 2 3 2 1 1 3 3 3 3 6 7 6 6 6 7
7 8 7 7 6 6 5 4 3 2 1 1 1 2 1 1 2 2 3 2 0 2 1 3 3 2 3 1 0 1 2 3 4 5 1 3 4 3 5 6 5 6 6
9 8 8 7 7 6 5 4 4 5 3 3 1 2 3 2 2 2 2 2 0 1 2 2 2 2 2 3 2 3 3 5 5 4 4 4 5 4 2 5 6 6 6
9 9 7 6 6 6 4 3 2 2 3 3 3 3 3 3 3 3 1 3 1 1 2 2 3 4 2 2 3 3 2 3 4 3 4 2 3 4 4 4 2 3 2
9 10 10 9 7 6 3 3 2 3 2 2 3 5 4 4 4 3 1 3 1 2 1 1 1 3 3 1 2 1 2 3 4 3 3 2 1 3 3 3 3 2 2
11 10 9 10 8 7 3 3 3 3 3 2 2 3 4 5 5 4 3 3 3 3 3 2 1 1 2 1 2 1 1 2 2 3 1 2 2 2 4 4 3 3 3
12 13 13 11 9 8 7 3 2 3 2 2 2 2 4 5 5 4 3 4 3 3 2 2 2 3 3 1 1 2 2 2 2 2 3 2 1 2 3 3 4 5 5
15 10 11 10 10 8 8 6 5 4 4 3 3 3 4 6 5 4 4 5 4 3 3 3 3 2 3 2 1 3 3 2 3 2 2 3 4 5 4 3 4 5 6
11 12 12 9 9 8 10 8 6 4 3 2 2 3 2 2 3 4 5 5 4 3 2 3 2 3 2 2 2 2 1 1 2 2 2 2 2 4 4 4 4 4 5
8 9 8 10 10 10 10 10 10 9 6 4 4 4 3 3 3 5 5 4 4 3 3 2 2 3 2 2 2 2 2 2 2 2 2 2 3 3 3 3 5 5 5
Wind_Direction
174 164 149 145 141 137 134 127 121 116 112 110 107 108 108 110 112 110 112 112 107 112 110 102 99 104 103 98 94 100 100 96 100 94 83 80 82 85 87 93 95 105 113
132 154 146 145 143 139 134 129 124 119 118 117 116 114 114 115 110 107 103 96 100 103 100 101 103 101 106 104 102 96 95 99 94 89 94 93 90 84 91 97 97 108 108
135 137 143 150 147 143 140 133 124 123 124 125 124 122 117 119 114 110 107 113 114 111 107 105 104 106 105 102 100 101 92 85 98 80 65 72 79 107 108 107 107 116 99
131 126 135 157 148 150 145 133 136 137 136 127 126 129 127 124 118 113 116 113 105 111 109 112 104 103 104 107 105 102 103 102 102 94 80 74 112 115 117 115 107 106 121
112 123 156 149 148 152 140 136 152 147 135 131 125 136 136 133 128 125 123 111 119 108 106 107 108 114 118 115 118 133 155 119 107 105 84 83 71 117 113 112 113 119 114
110 132 166 145 149 150 153 152 154 148 136 128 131 131 135 132 128 132 123 116 114 108 107 111 122 134 128 116 126 218 229 222 197 131 122 116 104 132 125 120 118 133 132
127 137 150 150 151 159 154 162 154 146 139 130 138 138 135 139 138 134 123 123 109 108 115 125 133 137 119 93 25 312 113 112 116 131 132 137 146 122 125 114 113 100 120
134 141 158 151 148 154 163 153 148 143 133 139 145 139 137 138 138 131 127 120 117 118 124 131 132 125 112 86 54 69 108 106 98 110 120 134 192 146 126 114 110 117 251
102 125 127 140 154 167 167 130 162 135 131 136 134 142 136 139 135 130 127 120 119 127 133 139 135 134 119 101 93 93 118 123 135 138 142 172 224 171 159 156 185 268 289
107 111 120 96 88 108 141 143 141 141 139 144 142 141 137 141 129 121 101 115 115 126 130 135 134 124 104 104 114 149 148 149 158 164 169 211 242 190 190 198 240 265 279
116 123 113 110 85 98 89 162 140 154 146 142 144 137 109 80 96 92 106 114 113 120 120 119 98 88 103 62 23 22 113 150 179 179 182 202 234 231 220 219 252 265 271
149 132 123 115 123 110 95 92 77 81 75 66 91 98 82 64 99 98 97 116 98 56 46 34 43 45 42 74 31 16 17 351 221 169 184 200 240 256 229 221 249 247 255
161 151 157 143 130 130 115 107 104 88 96 86 92 95 72 70 58 63 51 46 33 29 15 13 358 357 357 41 64 70 98 77 158 152 171 215 243 286 306 318 271 266 256
164 163 159 140 135 127 121 124 121 121 102 98 105 113 114 100 100 105 93 70 60 360 35 334 321 310 338 15 24 44 121 107 165 161 192 179 245 283 298 295 297 296 293
175 165 164 161 156 143 135 119 119 124 121 135 141 121 119 115 122 127 134 116 235 317 260 264 273 291 298 354 222 245 207 163 186 190 192 204 198 245 292 278 281 279 276
163 175 157 180 174 158 141 133 148 134 143 150 110 154 130 132 156 152 171 117 40 336 303 275 263 267 290 103 201 247 250 229 208 210 220 212 214 240 267 280 283 276 265
175 167 169 181 170 164 166 150 146 154 193 144 135 112 90 167 197 151 175 141 236 321 297 4 55 340 333 97 232 261 299 69 208 208 223 244 224 245 252 246 256 274 270
156 180 169 191 176 176 166 148 163 193 259 205 139 173 192 307 246 178 164 175 201 325 359 54 21 12 26 89 110 21 27 55 19 34 121 211 224 236 247 237 247 261 249
171 171 176 184 177 177 165 165 181 186 194 221 182 208 202 204 248 240 150 153 107 336 49 76 54 50 40 87 108 84 31 43 21 8 13 245 238 223 211 234 238 253 257
166 167 175 185 178 167 149 153 181 199 208 206 218 235 224 186 209 240 221 152 107 290 59 71 85 46 58 107 95 72 61 26 5 12 1 312 233 234 217 205 225 248 246
163 164 182 182 179 159 151 155 172 199 187 241 216 225 216 180 203 214 250 152 138 214 112 85 102 86 55 46 112 52 21 13 338 352 19 1 242 274 271 232 202 245 236
172 175 180 204 175 178 170 170 157 161 187 194 194 214 208 178 194 216 205 204 183 238 113 144 161 116 97 7 139 115 49 343 328 325 326 89 59 313 278 251 252 214 230
178 185 185 200 200 181 170 146 105 99 102 144 216 209 192 182 189 210 227 217 218 229 145 140 178 154 145 20 64 145 121 192 328 315 311 329 257 223 252 258 247 241 234
199 187 178 186 202 190 170 173 171 173 168 196 192 223 168 177 195 186 223 211 199 205 169 167 172 142 134 181 42 43 36 138 142 330 304 292 257 257 256 254 236 235 227
190 191 187 173 200 198 183 189 190 178 209 161 160 207 207 180 201 210 219 211 210 224 204 182 154 155 182 155 182 166 151 62 110 133 263 312 292 263 245 250 262 256 233
185 180 179 175 196 205 188 189 188 197 188 179 173 187 209 186 196 228 216 213 226 244 236 242 225 190 210 215 197 194 178 170 178 146 231 273 260 292 257 241 249 244 244